N1157K KSYR-

Flight info

Callsign N1157K
Flight time N/A
Altitude VFR/055
Route VFR NORTH
Aircraft M20P/L-DOV/C

Departure

Time 2026-04-27 16:01
Airport Syracuse Hancock International Airport (KSYR)

Arrival

Time N/A
Airport -
Time Latitude Longitude Altitude Speed Heading
2026-04-27 15:55 43.11154 -76.13065 419 ft 0 kts 207°
2026-04-27 15:57 43.11153 -76.13065 419 ft 2 kts 207°
2026-04-27 15:57 43.11091 -76.13096 419 ft 14 kts 172°
2026-04-27 15:57 43.10994 -76.12995 419 ft 22 kts 139°
2026-04-27 15:57 43.10938 -76.12821 419 ft 22 kts 88°
2026-04-27 15:58 43.10941 -76.12677 419 ft 11 kts 87°
2026-04-27 15:58 43.10920 -76.12636 415 ft 0 kts 171°
2026-04-27 15:59 43.10919 -76.12636 415 ft 2 kts 171°
2026-04-27 15:59 43.10868 -76.12616 416 ft 4 kts 149°
2026-04-27 16:00 43.10823 -76.12533 419 ft 5 kts 84°
2026-04-27 16:00 43.10824 -76.12532 419 ft 0 kts 84°
2026-04-27 16:00 43.10841 -76.12014 434 ft 83 kts 86°
2026-04-27 16:00 43.10864 -76.11087 636 ft 109 kts 89°
2026-04-27 16:01 43.10881 -76.09954 1010 ft 122 kts 89°
2026-04-27 16:01 43.10920 -76.08784 1530 ft 128 kts 83°
2026-04-27 16:01 43.11539 -76.07896 1839 ft 151 kts 13°
2026-04-27 16:01 43.12639 -76.08147 2018 ft 168 kts 343°
2026-04-27 16:02 43.13763 -76.08684 2487 ft 172 kts 340°
2026-04-27 16:02 43.14945 -76.09295 2455 ft 191 kts 338°
2026-04-27 16:02 43.16218 -76.09915 2440 ft 198 kts 346°
2026-04-27 16:02 43.17584 -76.10070 2461 ft 198 kts
2026-04-27 16:03 43.18974 -76.09901 2454 ft 201 kts
2026-04-27 16:03 43.20383 -76.09734 2450 ft 203 kts
2026-04-27 16:03 43.21807 -76.09576 2436 ft 206 kts
2026-04-27 16:03 43.23200 -76.09453 2681 ft 194 kts
2026-04-27 16:04 43.24517 -76.09330 3003 ft 186 kts
2026-04-27 16:04 43.25792 -76.09203 3328 ft 182 kts
2026-04-27 16:04 43.27064 -76.09080 3698 ft 185 kts
2026-04-27 16:04 43.28340 -76.08952 4009 ft 182 kts
2026-04-27 16:05 43.29600 -76.08831 4336 ft 183 kts
2026-04-27 16:05 43.30881 -76.08703 4669 ft 185 kts
2026-04-27 16:05 43.32167 -76.08578 5000 ft 185 kts
2026-04-27 16:05 43.33441 -76.08456 5343 ft 182 kts
2026-04-27 16:06 43.34737 -76.08319 5501 ft 194 kts
2026-04-27 16:06 43.36123 -76.08189 5495 ft 204 kts
2026-04-27 16:06 43.37542 -76.08052 5498 ft 211 kts
2026-04-27 16:06 43.39011 -76.07906 5502 ft 213 kts
2026-04-27 16:07 43.40488 -76.07762 5504 ft 214 kts
2026-04-27 16:07 43.41976 -76.07615 5500 ft 215 kts
2026-04-27 16:07 43.43464 -76.07468 5497 ft 215 kts
2026-04-27 16:07 43.44956 -76.07323 5499 ft 215 kts
2026-04-27 16:08 43.46444 -76.07176 5495 ft 215 kts
2026-04-27 16:08 43.47935 -76.07029 5463 ft 216 kts
2026-04-27 16:08 43.49455 -76.06881 5344 ft 223 kts
2026-04-27 16:08 43.50499 -76.06782 5263 ft 223 kts
2026-04-27 16:09 43.52029 -76.06624 5146 ft 223 kts
2026-04-27 16:09 43.55119 -76.06320 4882 ft 222 kts
2026-04-27 16:09 43.56660 -76.06169 4753 ft 222 kts
2026-04-27 16:10 43.59734 -76.05865 4496 ft 221 kts
2026-04-27 16:10 43.62862 -76.05548 4256 ft 228 kts
2026-04-27 16:11 43.64435 -76.05404 4121 ft 226 kts
2026-04-27 16:11 43.67526 -76.05095 3895 ft 220 kts
2026-04-27 16:12 43.70595 -76.04783 3634 ft 220 kts
2026-04-27 16:12 43.72115 -76.04641 3507 ft 218 kts
2026-04-27 16:12 43.75077 -76.04330 3480 ft 210 kts
2026-04-27 16:13 43.76536 -76.04200 3460 ft 213 kts
2026-04-27 16:13 43.79426 -76.03916 3484 ft 205 kts
2026-04-27 16:13 43.80846 -76.03769 3484 ft 205 kts
2026-04-27 16:14 43.83687 -76.03489 3490 ft 204 kts
2026-04-27 16:14 43.86519 -76.03198 3482 ft 206 kts
2026-04-27 16:15 43.89156 -76.02943 3449 ft 179 kts
2026-04-27 16:15 43.91554 -76.02689 3428 ft 173 kts
2026-04-27 16:16 43.93909 -76.02579 2746 ft 150 kts
2026-04-27 16:16 43.95669 -76.02302 1944 ft 116 kts
2026-04-27 16:17 43.97110 -76.02030 1509 ft 97 kts
2026-04-27 16:17 43.98074 -76.00921 1144 ft 102 kts 73°
2026-04-27 16:18 43.98358 -75.99068 993 ft 97 kts 78°
2026-04-27 16:18 43.98664 -75.97428 1000 ft 95 kts 357°
2026-04-27 16:19 43.99032 -75.98062 841 ft 92 kts 278°
2026-04-27 16:19 43.99074 -75.98884 648 ft 80 kts 268°
2026-04-27 16:20 43.99143 -76.00858 331 ft 62 kts 273°
2026-04-27 16:20 43.99179 -76.01668 447 ft 102 kts 271°
2026-04-27 16:20 43.99029 -76.03904 888 ft 133 kts 216°
2026-04-27 16:21 43.98077 -76.03939 925 ft 150 kts 145°
2026-04-27 16:21 43.97811 -75.99990 1012 ft 105 kts 86°
2026-04-27 16:22 43.97870 -75.99011 945 ft 102 kts 86°
2026-04-27 16:22 43.98536 -75.97747 835 ft 94 kts
2026-04-27 16:22 43.99051 -75.98068 811 ft 87 kts 278°
2026-04-27 16:23 43.99080 -75.98851 660 ft 78 kts 269°
2026-04-27 16:23 43.99125 -76.00262 394 ft 66 kts 270°
2026-04-27 16:23 43.99143 -76.00830 331 ft 47 kts 274°
2026-04-27 16:24 43.99165 -76.01164 327 ft 25 kts 310°
2026-04-27 16:24 43.99271 -76.01277 327 ft 23 kts 274°
2026-04-27 16:25 43.99292 -76.01851 322 ft 16 kts 271°
2026-04-27 16:25 43.99462 -76.02143 321 ft 16 kts 264°